Time,TemperatureF,DewpointF,PressureIn,WindDirection,WindDirectionDegrees,WindSpeedMPH,WindSpeedGustMPH,Humidity,HourlyPrecipIn,Conditions,Clouds,dailyrainin,SoftwareType,DateUTC
2013-04-26 00:00:00,42.8,26.4,30.32,South,182,1.0,6.0,52,0.00,,,0.00,meteohub,2013-04-26 05:00:00,
2013-04-26 00:05:00,42.6,26.2,30.32,SSW,197,3.0,8.0,52,0.00,,,0.00,meteohub,2013-04-26 05:05:00,
2013-04-26 00:10:00,42.4,27.0,30.32,South,170,3.0,8.0,54,0.00,,,0.00,meteohub,2013-04-26 05:10:00,
2013-04-26 00:15:00,42.4,27.0,30.32,SSE,158,2.0,8.0,54,0.00,,,0.00,meteohub,2013-04-26 05:15:00,
2013-04-26 00:20:00,42.4,27.0,30.31,SSE,160,4.0,6.0,54,0.00,,,0.00,meteohub,2013-04-26 05:20:00,
2013-04-26 00:25:00,42.4,26.6,30.31,SSE,156,0.0,6.0,53,0.00,,,0.00,meteohub,2013-04-26 05:25:00,
2013-04-26 00:30:00,42.3,26.4,30.32,SW,228,4.0,6.0,53,0.00,,,0.00,meteohub,2013-04-26 05:30:00,
2013-04-26 00:35:00,42.3,26.4,30.31,South,182,4.0,7.0,53,0.00,,,0.00,meteohub,2013-04-26 05:35:00,
2013-04-26 00:40:00,42.1,26.2,30.32,SE,124,1.0,7.0,53,0.00,,,0.00,meteohub,2013-04-26 05:40:00,
2013-04-26 00:46:00,42.1,26.2,30.31,South,177,2.0,10.0,53,0.00,,,0.00,meteohub,2013-04-26 05:46:00,
2013-04-26 00:51:00,42.1,26.2,30.31,SSW,212,4.0,10.0,53,0.00,,,0.00,meteohub,2013-04-26 05:51:00,
2013-04-26 00:56:00,41.9,26.1,30.31,SSE,157,4.0,7.0,53,0.00,,,0.00,meteohub,2013-04-26 05:56:00,
2013-04-26 01:01:00,41.7,26.2,30.31,South,182,2.0,6.0,54,0.00,,,0.00,meteohub,2013-04-26 06:01:00,
2013-04-26 01:06:00,41.5,25.7,30.31,South,177,4.0,6.0,53,0.00,,,0.00,meteohub,2013-04-26 06:06:00,
2013-04-26 01:11:00,41.5,26.1,30.31,SE,146,2.0,6.0,54,0.00,,,0.00,meteohub,2013-04-26 06:11:00,
2013-04-26 01:16:00,41.5,26.1,30.30,SE,141,3.0,7.0,54,0.00,,,0.00,meteohub,2013-04-26 06:16:00,
2013-04-26 01:21:00,41.5,26.1,30.31,South,177,3.0,7.0,54,0.00,,,0.00,meteohub,2013-04-26 06:21:00,
2013-04-26 01:26:00,41.4,25.9,30.30,SSW,197,3.0,7.0,54,0.00,,,0.00,meteohub,2013-04-26 06:26:00,
2013-04-26 01:31:00,41.4,25.9,30.30,South,182,1.0,7.0,54,0.00,,,0.00,meteohub,2013-04-26 06:31:00,
2013-04-26 01:37:00,41.4,25.5,30.30,SSW,212,3.0,7.0,53,0.00,,,0.00,meteohub,2013-04-26 06:37:00,
2013-04-26 01:42:00,41.4,25.5,30.30,SSW,195,2.0,6.0,53,0.00,,,0.00,meteohub,2013-04-26 06:42:00,
2013-04-26 01:47:00,41.2,24.8,30.30,SSE,155,4.0,8.0,52,0.00,,,0.00,meteohub,2013-04-26 06:47:00,
2013-04-26 01:52:00,41.2,24.8,30.30,SE,140,5.0,8.0,52,0.00,,,0.00,meteohub,2013-04-26 06:52:00,
2013-04-26 01:57:00,41.4,25.5,30.30,SSE,158,6.0,8.0,53,0.00,,,0.00,meteohub,2013-04-26 06:57:00,
2013-04-26 02:02:00,41.4,25.5,30.30,South,191,3.0,10.0,53,0.00,,,0.00,meteohub,2013-04-26 07:02:00,
2013-04-26 02:07:00,41.4,25.9,30.30,SSE,147,8.0,10.0,54,0.00,,,0.00,meteohub,2013-04-26 07:07:00,
2013-04-26 02:12:00,41.4,25.5,30.30,SSE,147,4.0,10.0,53,0.00,,,0.00,meteohub,2013-04-26 07:12:00,
2013-04-26 02:17:00,41.4,25.0,30.30,South,169,6.0,9.0,52,0.00,,,0.00,meteohub,2013-04-26 07:17:00,
2013-04-26 02:22:00,41.4,25.0,30.30,SSW,193,4.0,9.0,52,0.00,,,0.00,meteohub,2013-04-26 07:22:00,
2013-04-26 02:27:00,41.4,25.0,30.30,SSW,204,6.0,9.0,52,0.00,,,0.00,meteohub,2013-04-26 07:27:00,
2013-04-26 02:32:00,41.4,25.0,30.30,SW,218,5.0,9.0,52,0.00,,,0.00,meteohub,2013-04-26 07:32:00,
2013-04-26 02:37:00,41.2,24.8,30.29,South,177,7.0,9.0,52,0.00,,,0.00,meteohub,2013-04-26 07:37:00,
2013-04-26 02:42:00,41.2,24.8,30.30,South,187,4.0,9.0,52,0.00,,,0.00,meteohub,2013-04-26 07:42:00,
2013-04-26 02:47:00,41.2,24.8,30.30,SSE,158,6.0,9.0,52,0.00,,,0.00,meteohub,2013-04-26 07:47:00,
2013-04-26 02:52:00,41.2,24.8,30.30,SSE,160,5.0,9.0,52,0.00,,,0.00,meteohub,2013-04-26 07:52:00,
2013-04-26 02:57:00,41.4,25.0,30.30,SSW,213,2.0,10.0,52,0.00,,,0.00,meteohub,2013-04-26 07:57:00,
2013-04-26 03:02:00,41.2,24.8,30.30,South,187,4.0,10.0,52,0.00,,,0.00,meteohub,2013-04-26 08:02:00,
2013-04-26 03:07:00,41.2,24.8,30.30,SSE,160,6.0,10.0,52,0.00,,,0.00,meteohub,2013-04-26 08:07:00,
2013-04-26 03:12:00,41.2,24.8,30.30,SSE,154,3.0,9.0,52,0.00,,,0.00,meteohub,2013-04-26 08:12:00,
2013-04-26 03:17:00,41.4,25.0,30.29,South,187,9.0,9.0,52,0.00,,,0.00,meteohub,2013-04-26 08:17:00,
2013-04-26 03:22:00,41.4,24.6,30.30,SSE,162,7.0,10.0,51,0.00,,,0.00,meteohub,2013-04-26 08:22:00,
2013-04-26 03:27:00,41.4,24.6,30.30,South,182,6.0,10.0,51,0.00,,,0.00,meteohub,2013-04-26 08:27:00,
2013-04-26 03:32:00,41.4,24.6,30.30,SSE,150,9.0,10.0,51,0.00,,,0.00,meteohub,2013-04-26 08:32:00,
2013-04-26 03:37:00,41.4,25.0,30.30,South,177,5.0,10.0,52,0.00,,,0.00,meteohub,2013-04-26 08:37:00,
2013-04-26 03:42:00,41.4,25.0,30.30,SE,134,6.0,10.0,52,0.00,,,0.00,meteohub,2013-04-26 08:42:00,
2013-04-26 03:47:00,41.4,25.0,30.30,South,187,6.0,9.0,52,0.00,,,0.00,meteohub,2013-04-26 08:47:00,
2013-04-26 03:52:00,41.4,25.0,30.30,SSE,166,7.0,10.0,52,0.00,,,0.00,meteohub,2013-04-26 08:52:00,
2013-04-26 03:57:00,41.4,25.0,30.30,SSE,149,0.0,12.0,52,0.00,,,0.00,meteohub,2013-04-26 08:57:00,
2013-04-26 04:02:00,41.4,25.0,30.30,SSE,166,7.0,12.0,52,0.00,,,0.00,meteohub,2013-04-26 09:02:00,
2013-04-26 04:07:00,41.2,25.3,30.30,SSW,202,6.0,12.0,53,0.00,,,0.00,meteohub,2013-04-26 09:07:00,
2013-04-26 04:12:00,41.2,25.3,30.30,South,177,6.0,12.0,53,0.00,,,0.00,meteohub,2013-04-26 09:12:00,
2013-04-26 04:17:00,41.0,25.2,30.30,SSE,151,8.0,12.0,53,0.00,,,0.00,meteohub,2013-04-26 09:17:00,
2013-04-26 04:22:00,41.0,25.2,30.30,SSE,168,5.0,12.0,53,0.00,,,0.00,meteohub,2013-04-26 09:22:00,
2013-04-26 04:27:00,41.0,25.2,30.30,SSE,162,4.0,12.0,53,0.00,,,0.00,meteohub,2013-04-26 09:27:00,
2013-04-26 04:32:00,41.0,25.7,30.30,South,171,5.0,12.0,54,0.00,,,0.00,meteohub,2013-04-26 09:32:00,
2013-04-26 04:37:00,41.0,26.1,30.30,SSE,168,5.0,12.0,55,0.00,,,0.00,meteohub,2013-04-26 09:37:00,
2013-04-26 04:42:00,41.0,26.1,30.30,SSW,205,5.0,12.0,55,0.00,,,0.00,meteohub,2013-04-26 09:42:00,
2013-04-26 04:47:00,40.8,25.9,30.29,SW,215,7.0,12.0,55,0.00,,,0.00,meteohub,2013-04-26 09:47:00,
2013-04-26 04:52:00,40.8,25.9,30.29,SSE,160,11.0,12.0,55,0.00,,,0.00,meteohub,2013-04-26 09:52:00,
2013-04-26 04:57:00,40.6,25.7,30.28,SSE,159,7.0,14.0,55,0.00,,,0.00,meteohub,2013-04-26 09:57:00,
2013-04-26 05:02:00,40.6,26.2,30.27,SSE,148,10.0,15.0,56,0.00,,,0.00,meteohub,2013-04-26 10:02:00,
2013-04-26 05:07:00,40.6,26.2,30.27,SSE,161,4.0,15.0,56,0.00,,,0.00,meteohub,2013-04-26 10:07:00,
2013-04-26 05:12:00,40.8,26.4,30.28,SSW,195,3.0,15.0,56,0.00,,,0.00,meteohub,2013-04-26 10:12:00,
2013-04-26 05:17:00,41.0,26.4,30.29,SSW,193,8.0,15.0,56,0.00,,,0.00,meteohub,2013-04-26 10:17:00,
2013-04-26 05:22:00,41.4,26.8,30.29,SSE,152,1.0,13.0,56,0.00,,,0.00,meteohub,2013-04-26 10:22:00,
2013-04-26 05:27:00,41.4,26.8,30.29,SSE,161,9.0,13.0,56,0.00,,,0.00,meteohub,2013-04-26 10:27:00,
2013-04-26 05:32:00,41.5,27.0,30.28,South,172,6.0,15.0,56,0.00,,,0.00,meteohub,2013-04-26 10:32:00,
2013-04-26 05:37:00,41.7,27.1,30.29,South,177,8.0,16.0,56,0.00,,,0.00,meteohub,2013-04-26 10:37:00,
2013-04-26 05:42:00,41.7,27.1,30.29,South,172,6.0,16.0,56,0.00,,,0.00,meteohub,2013-04-26 10:42:00,
2013-04-26 05:47:00,41.9,27.3,30.29,South,187,7.0,16.0,56,0.00,,,0.00,meteohub,2013-04-26 10:47:00,
2013-04-26 05:52:00,42.1,27.5,30.29,SE,126,8.0,15.0,56,0.00,,,0.00,meteohub,2013-04-26 10:52:00,
2013-04-26 05:57:00,42.1,27.5,30.29,South,182,7.0,14.0,56,0.00,,,0.00,meteohub,2013-04-26 10:57:00,
2013-04-26 06:02:00,42.3,27.7,30.29,SE,143,9.0,14.0,56,0.00,,,0.00,meteohub,2013-04-26 11:02:00,
2013-04-26 06:07:00,42.4,27.9,30.29,SSE,164,10.0,15.0,56,0.00,,,0.00,meteohub,2013-04-26 11:07:00,
2013-04-26 06:12:00,42.4,27.9,30.29,South,172,5.0,15.0,56,0.00,,,0.00,meteohub,2013-04-26 11:12:00,
2013-04-26 06:17:00,42.6,28.0,30.29,SSE,166,10.0,15.0,56,0.00,,,0.00,meteohub,2013-04-26 11:17:00,
2013-04-26 06:22:00,42.6,28.4,30.29,SSE,164,7.0,14.0,57,0.00,,,0.00,meteohub,2013-04-26 11:22:00,
2013-04-26 06:27:00,43.0,28.8,30.29,SSW,204,6.0,12.0,57,0.00,,,0.00,meteohub,2013-04-26 11:27:00,
2013-04-26 06:32:00,43.2,28.9,30.30,SSW,197,6.0,12.0,57,0.00,,,0.00,meteohub,2013-04-26 11:32:00,
2013-04-26 06:37:00,43.7,29.5,30.29,South,182,11.0,11.0,57,0.00,,,0.00,meteohub,2013-04-26 11:37:00,
2013-04-26 06:42:00,44.2,29.5,30.29,SE,133,5.0,12.0,56,0.00,,,0.00,meteohub,2013-04-26 11:42:00,
2013-04-26 06:47:00,44.6,29.5,30.29,SSE,166,6.0,12.0,55,0.00,,,0.00,meteohub,2013-04-26 11:47:00,
2013-04-26 06:52:00,44.8,29.7,30.29,SSE,162,7.0,16.0,55,0.00,,,0.00,meteohub,2013-04-26 11:52:00,
2013-04-26 06:57:00,44.8,30.0,30.28,South,177,12.0,16.0,56,0.00,,,0.00,meteohub,2013-04-26 11:57:00,
2013-04-26 07:02:00,44.8,30.0,30.28,South,177,4.0,16.0,56,0.00,,,0.00,meteohub,2013-04-26 12:02:00,
2013-04-26 07:07:00,44.8,30.0,30.28,SSE,148,7.0,16.0,56,0.00,,,0.00,meteohub,2013-04-26 12:07:00,
2013-04-26 07:12:00,45.0,30.2,30.28,South,187,10.0,16.0,56,0.00,,,0.00,meteohub,2013-04-26 12:12:00,
2013-04-26 07:17:00,45.0,30.6,30.28,SE,143,4.0,16.0,57,0.00,,,0.00,meteohub,2013-04-26 12:17:00,
2013-04-26 07:22:00,45.1,30.7,30.28,SSE,155,8.0,16.0,57,0.00,,,0.00,meteohub,2013-04-26 12:22:00,
2013-04-26 07:27:00,45.5,31.1,30.28,SSW,207,9.0,13.0,57,0.00,,,0.00,meteohub,2013-04-26 12:27:00,
2013-04-26 07:32:00,45.9,31.5,30.27,SSW,207,5.0,14.0,57,0.00,,,0.00,meteohub,2013-04-26 12:32:00,
2013-04-26 07:37:00,45.9,31.1,30.28,South,191,10.0,17.0,56,0.00,,,0.00,meteohub,2013-04-26 12:37:00,
2013-04-26 07:42:00,46.0,31.6,30.27,SSW,193,8.0,17.0,57,0.00,,,0.00,meteohub,2013-04-26 12:42:00,
2013-04-26 07:47:00,46.2,31.8,30.27,SSE,168,4.0,17.0,57,0.00,,,0.00,meteohub,2013-04-26 12:47:00,
2013-04-26 07:52:00,46.8,31.8,30.27,South,172,5.0,17.0,56,0.00,,,0.00,meteohub,2013-04-26 12:52:00,
2013-04-26 07:57:00,47.3,32.4,30.27,SE,131,11.0,17.0,56,0.00,,,0.00,meteohub,2013-04-26 12:57:00,
2013-04-26 08:02:00,47.8,32.0,30.27,South,171,9.0,17.0,54,0.00,,,0.00,meteohub,2013-04-26 13:02:00,
2013-04-26 08:07:00,48.4,32.5,30.27,South,169,8.0,17.0,54,0.00,,,0.00,meteohub,2013-04-26 13:07:00,
2013-04-26 08:12:00,48.7,32.4,30.27,SSW,202,8.0,17.0,53,0.00,,,0.00,meteohub,2013-04-26 13:12:00,
2013-04-26 08:17:00,49.3,32.9,30.27,SSE,153,4.0,17.0,53,0.00,,,0.00,meteohub,2013-04-26 13:17:00,
2013-04-26 08:22:00,49.6,32.7,30.27,SSW,202,11.0,18.0,52,0.00,,,0.00,meteohub,2013-04-26 13:22:00,
2013-04-26 08:27:00,50.0,33.1,30.27,SSE,164,12.0,18.0,52,0.00,,,0.00,meteohub,2013-04-26 13:27:00,
2013-04-26 08:32:00,50.2,32.7,30.27,SE,135,5.0,18.0,51,0.00,,,0.00,meteohub,2013-04-26 13:32:00,
2013-04-26 08:37:00,50.5,33.1,30.27,SW,228,5.0,17.0,51,0.00,,,0.00,meteohub,2013-04-26 13:37:00,
2013-04-26 08:42:00,50.7,33.3,30.27,South,187,5.0,17.0,51,0.00,,,0.00,meteohub,2013-04-26 13:42:00,
2013-04-26 08:47:00,51.1,33.6,30.27,SSE,157,7.0,19.0,51,0.00,,,0.00,meteohub,2013-04-26 13:47:00,
2013-04-26 08:52:00,51.3,33.3,30.27,SW,226,6.0,19.0,50,0.00,,,0.00,meteohub,2013-04-26 13:52:00,
2013-04-26 08:57:00,51.3,33.3,30.27,SW,228,6.0,21.0,50,0.00,,,0.00,meteohub,2013-04-26 13:57:00,
2013-04-26 09:02:00,51.4,33.4,30.27,South,173,3.0,21.0,50,0.00,,,0.00,meteohub,2013-04-26 14:02:00,
2013-04-26 09:07:00,51.3,33.8,30.27,SSW,194,8.0,21.0,51,0.00,,,0.00,meteohub,2013-04-26 14:07:00,
2013-04-26 09:12:00,51.3,33.8,30.27,SSW,196,5.0,17.0,51,0.00,,,0.00,meteohub,2013-04-26 14:12:00,
2013-04-26 09:17:00,51.4,34.0,30.27,SSW,206,9.0,16.0,51,0.00,,,0.00,meteohub,2013-04-26 14:17:00,
2013-04-26 09:22:00,52.3,34.7,30.26,SSW,202,11.0,20.0,51,0.00,,,0.00,meteohub,2013-04-26 14:22:00,
2013-04-26 09:27:00,53.2,35.1,30.26,WSW,251,13.0,20.0,50,0.00,,,0.00,meteohub,2013-04-26 14:27:00,
2013-04-26 09:32:00,53.6,35.4,30.26,SSW,208,6.0,21.0,50,0.00,,,0.00,meteohub,2013-04-26 14:32:00,
2013-04-26 09:37:00,54.0,35.8,30.26,SSW,197,6.0,22.0,50,0.00,,,0.00,meteohub,2013-04-26 14:37:00,
2013-04-26 09:42:00,54.3,36.1,30.26,SSE,163,14.0,22.0,50,0.00,,,0.00,meteohub,2013-04-26 14:42:00,
2013-04-26 09:47:00,54.9,36.1,30.25,SW,235,11.0,22.0,49,0.00,,,0.00,meteohub,2013-04-26 14:47:00,
2013-04-26 09:52:00,55.0,36.1,30.25,SSE,166,7.0,21.0,49,0.00,,,0.00,meteohub,2013-04-26 14:52:00,
2013-04-26 09:57:00,55.8,36.9,30.25,South,187,15.0,21.0,49,0.00,,,0.00,meteohub,2013-04-26 14:57:00,
2013-04-26 10:02:00,56.1,36.7,30.25,South,177,6.0,21.0,48,0.00,,,0.00,meteohub,2013-04-26 15:02:00,
2013-04-26 10:07:00,56.5,36.5,30.25,SSW,199,13.0,21.0,47,0.00,,,0.00,meteohub,2013-04-26 15:07:00,
2013-04-26 10:12:00,56.5,37.0,30.25,South,169,10.0,21.0,48,0.00,,,0.00,meteohub,2013-04-26 15:12:00,
2013-04-26 10:17:00,56.8,36.9,30.25,SSW,203,8.0,21.0,47,0.00,,,0.00,meteohub,2013-04-26 15:17:00,
2013-04-26 10:22:00,56.8,36.9,30.25,SW,234,8.0,20.0,47,0.00,,,0.00,meteohub,2013-04-26 15:22:00,
2013-04-26 10:27:00,57.2,37.2,30.25,South,177,15.0,20.0,47,0.00,,,0.00,meteohub,2013-04-26 15:27:00,
2013-04-26 10:32:00,57.7,37.0,30.25,SSW,195,7.0,21.0,46,0.00,,,0.00,meteohub,2013-04-26 15:32:00,
2013-04-26 10:37:00,58.3,37.0,30.25,South,177,8.0,21.0,45,0.00,,,0.00,meteohub,2013-04-26 15:37:00,
2013-04-26 10:43:00,58.5,37.2,30.25,SSW,194,6.0,21.0,45,0.00,,,0.00,meteohub,2013-04-26 15:43:00,
2013-04-26 10:48:00,58.6,37.4,30.25,SSW,204,7.0,19.0,45,0.00,,,0.00,meteohub,2013-04-26 15:48:00,
2013-04-26 10:53:00,59.0,37.8,30.25,SE,139,10.0,27.0,45,0.00,,,0.00,meteohub,2013-04-26 15:53:00,
2013-04-26 10:58:00,59.2,37.9,30.25,South,177,10.0,27.0,45,0.00,,,0.00,meteohub,2013-04-26 15:58:00,
2013-04-26 11:03:00,59.5,37.6,30.25,South,171,18.0,27.0,44,0.00,,,0.00,meteohub,2013-04-26 16:03:00,
2013-04-26 11:08:00,59.5,38.1,30.25,SSW,206,11.0,18.0,45,0.00,,,0.00,meteohub,2013-04-26 16:08:00,
2013-04-26 11:13:00,59.4,37.9,30.25,WSW,244,8.0,18.0,45,0.00,,,0.00,meteohub,2013-04-26 16:13:00,
2013-04-26 11:18:00,59.7,38.3,30.25,West,279,10.0,23.0,45,0.00,,,0.00,meteohub,2013-04-26 16:18:00,
2013-04-26 11:23:00,59.9,37.9,30.25,SW,231,12.0,23.0,44,0.00,,,0.00,meteohub,2013-04-26 16:23:00,
2013-04-26 11:28:00,60.4,38.5,30.25,South,182,11.0,23.0,44,0.00,,,0.00,meteohub,2013-04-26 16:28:00,
2013-04-26 11:33:00,60.4,38.5,30.24,SSW,200,7.0,23.0,44,0.00,,,0.00,meteohub,2013-04-26 16:33:00,
2013-04-26 11:39:00,61.0,38.8,30.24,SSW,192,14.0,23.0,44,0.00,,,0.00,meteohub,2013-04-26 16:39:00,
2013-04-26 11:44:00,60.8,38.7,30.24,SW,233,8.0,18.0,44,0.00,,,0.00,meteohub,2013-04-26 16:44:00,
2013-04-26 11:49:00,61.3,39.2,30.24,West,263,10.0,26.0,44,0.00,,,0.00,meteohub,2013-04-26 16:49:00,
2013-04-26 11:54:00,61.3,38.7,30.24,SW,220,11.0,26.0,43,0.00,,,0.00,meteohub,2013-04-26 16:54:00,
2013-04-26 11:59:00,61.3,39.2,30.24,SSW,195,19.0,26.0,44,0.00,,,0.00,meteohub,2013-04-26 16:59:00,
2013-04-26 12:04:00,61.3,39.2,30.24,SW,233,10.0,25.0,44,0.00,,,0.00,meteohub,2013-04-26 17:04:00,
2013-04-26 12:09:00,61.5,39.4,30.24,SW,231,10.0,26.0,44,0.00,,,0.00,meteohub,2013-04-26 17:09:00,
2013-04-26 12:14:00,62.1,39.4,30.24,SSW,210,3.0,26.0,43,0.00,,,0.00,meteohub,2013-04-26 17:14:00,
2013-04-26 12:19:00,62.8,39.9,30.24,South,182,13.0,26.0,43,0.00,,,0.00,meteohub,2013-04-26 17:19:00,
2013-04-26 12:24:00,62.2,39.4,30.24,South,182,15.0,22.0,43,0.00,,,0.00,meteohub,2013-04-26 17:24:00,
2013-04-26 12:29:00,62.2,40.1,30.23,SSE,155,7.0,24.0,44,0.00,,,0.00,meteohub,2013-04-26 17:29:00,
2013-04-26 12:35:00,62.8,40.5,30.23,South,191,9.0,24.0,44,0.00,,,0.00,meteohub,2013-04-26 17:35:00,
2013-04-26 12:40:00,62.6,39.7,30.23,SSW,201,9.0,24.0,43,0.00,,,0.00,meteohub,2013-04-26 17:40:00,
2013-04-26 12:45:00,63.1,40.8,30.23,West,259,4.0,22.0,44,0.00,,,0.00,meteohub,2013-04-26 17:45:00,
2013-04-26 12:50:00,63.3,40.5,30.23,South,187,10.0,22.0,43,0.00,,,0.00,meteohub,2013-04-26 17:50:00,
2013-04-26 12:55:00,63.3,41.0,30.22,SSW,204,9.0,20.0,44,0.00,,,0.00,meteohub,2013-04-26 17:55:00,
2013-04-26 13:00:00,63.5,41.2,30.23,SSW,195,10.0,20.0,44,0.00,,,0.00,meteohub,2013-04-26 18:00:00,
2013-04-26 13:05:00,63.7,41.4,30.22,SSE,166,8.0,20.0,44,0.00,,,0.00,meteohub,2013-04-26 18:05:00,
2013-04-26 13:10:00,64.0,41.2,30.22,SW,220,16.0,22.0,43,0.00,,,0.00,meteohub,2013-04-26 18:10:00,
2013-04-26 13:15:00,64.2,41.2,30.22,South,177,7.0,22.0,43,0.00,,,0.00,meteohub,2013-04-26 18:15:00,
2013-04-26 13:20:00,64.4,41.4,30.22,ESE,105,4.0,19.0,43,0.00,,,0.00,meteohub,2013-04-26 18:20:00,
2013-04-26 13:25:00,64.8,41.7,30.22,SSW,204,12.0,18.0,43,0.00,,,0.00,meteohub,2013-04-26 18:25:00,
2013-04-26 13:31:00,64.8,42.3,30.21,WSW,256,7.0,19.0,44,0.00,,,0.00,meteohub,2013-04-26 18:31:00,
2013-04-26 13:36:00,65.5,41.7,30.21,SSW,206,6.0,19.0,42,0.00,,,0.00,meteohub,2013-04-26 18:36:00,
2013-04-26 13:41:00,65.5,41.7,30.21,WSW,239,9.0,19.0,42,0.00,,,0.00,meteohub,2013-04-26 18:41:00,
2013-04-26 13:46:00,65.7,41.9,30.21,SSW,204,14.0,20.0,42,0.00,,,0.00,meteohub,2013-04-26 18:46:00,
2013-04-26 13:51:00,65.8,42.1,30.20,SW,230,3.0,20.0,42,0.00,,,0.00,meteohub,2013-04-26 18:51:00,
2013-04-26 13:56:00,65.8,42.8,30.20,SSW,210,8.0,22.0,43,0.00,,,0.00,meteohub,2013-04-26 18:56:00,
2013-04-26 14:01:00,65.7,41.9,30.20,WSW,242,4.0,22.0,42,0.00,,,0.00,meteohub,2013-04-26 19:01:00,
2013-04-26 14:06:00,66.0,42.3,30.20,South,191,12.0,22.0,42,0.00,,,0.00,meteohub,2013-04-26 19:06:00,
2013-04-26 14:11:00,66.0,42.3,30.19,SSW,195,8.0,26.0,42,0.00,,,0.00,meteohub,2013-04-26 19:11:00,
2013-04-26 14:16:00,66.2,42.4,30.20,SW,215,9.0,26.0,42,0.00,,,0.00,meteohub,2013-04-26 19:16:00,
2013-04-26 14:21:00,66.4,42.6,30.19,SW,235,12.0,26.0,42,0.00,,,0.00,meteohub,2013-04-26 19:21:00,
2013-04-26 14:27:00,66.6,43.3,30.19,SW,223,4.0,25.0,43,0.00,,,0.00,meteohub,2013-04-26 19:27:00,
2013-04-26 14:32:00,66.9,43.2,30.19,SSW,201,8.0,22.0,42,0.00,,,0.00,meteohub,2013-04-26 19:32:00,
2013-04-26 14:37:00,67.1,43.2,30.19,SSE,163,7.0,22.0,42,0.00,,,0.00,meteohub,2013-04-26 19:37:00,
2013-04-26 14:42:00,67.5,43.5,30.19,South,187,12.0,20.0,42,0.00,,,0.00,meteohub,2013-04-26 19:42:00,
2013-04-26 14:47:00,68.2,43.0,30.19,SW,221,9.0,20.0,40,0.00,,,0.00,meteohub,2013-04-26 19:47:00,
2013-04-26 14:52:00,68.4,43.2,30.18,SSE,160,5.0,20.0,40,0.00,,,0.00,meteohub,2013-04-26 19:52:00,
2013-04-26 14:57:00,68.7,43.3,30.18,SSW,193,5.0,21.0,40,0.00,,,0.00,meteohub,2013-04-26 19:57:00,
2013-04-26 15:02:00,68.5,42.6,30.18,WSW,238,14.0,21.0,39,0.00,,,0.00,meteohub,2013-04-26 20:02:00,
2013-04-26 15:07:00,68.5,43.3,30.18,WSW,256,5.0,19.0,40,0.00,,,0.00,meteohub,2013-04-26 20:07:00,
2013-04-26 15:12:00,68.5,43.3,30.18,SW,222,10.0,19.0,40,0.00,,,0.00,meteohub,2013-04-26 20:12:00,
2013-04-26 15:17:00,68.4,43.7,30.18,South,182,7.0,21.0,41,0.00,,,0.00,meteohub,2013-04-26 20:17:00,
2013-04-26 15:22:00,68.4,43.2,30.18,SSW,208,15.0,21.0,40,0.00,,,0.00,meteohub,2013-04-26 20:22:00,
2013-04-26 15:27:00,68.0,42.8,30.18,SSE,164,11.0,23.0,40,0.00,,,0.00,meteohub,2013-04-26 20:27:00,
2013-04-26 15:32:00,67.5,43.5,30.18,SW,236,7.0,27.0,42,0.00,,,0.00,meteohub,2013-04-26 20:32:00,
2013-04-26 15:37:00,67.3,43.3,30.17,SW,223,13.0,27.0,42,0.00,,,0.00,meteohub,2013-04-26 20:37:00,
2013-04-26 15:42:00,67.1,43.9,30.17,SSE,166,15.0,27.0,43,0.00,,,0.00,meteohub,2013-04-26 20:42:00,
2013-04-26 15:47:00,67.5,44.2,30.17,SW,214,7.0,25.0,43,0.00,,,0.00,meteohub,2013-04-26 20:47:00,
2013-04-26 15:52:00,68.2,44.2,30.17,SSE,168,11.0,25.0,42,0.00,,,0.00,meteohub,2013-04-26 20:52:00,
2013-04-26 15:57:00,68.4,44.4,30.17,WSW,242,15.0,25.0,42,0.00,,,0.00,meteohub,2013-04-26 20:57:00,
2013-04-26 16:02:00,68.5,44.6,30.17,SSW,206,13.0,21.0,42,0.00,,,0.00,meteohub,2013-04-26 21:02:00,
2013-04-26 16:07:00,68.5,44.6,30.17,WSW,252,13.0,24.0,42,0.00,,,0.00,meteohub,2013-04-26 21:07:00,
2013-04-26 16:12:00,68.9,44.8,30.17,WNW,285,4.0,24.0,42,0.00,,,0.00,meteohub,2013-04-26 21:12:00,
2013-04-26 16:17:00,68.7,44.8,30.17,WSW,247,7.0,24.0,42,0.00,,,0.00,meteohub,2013-04-26 21:17:00,
2013-04-26 16:22:00,68.2,44.2,30.17,West,263,9.0,21.0,42,0.00,,,0.00,meteohub,2013-04-26 21:22:00,
2013-04-26 16:27:00,68.2,44.2,30.17,SSW,213,13.0,21.0,42,0.00,,,0.00,meteohub,2013-04-26 21:27:00,
2013-04-26 16:32:00,68.5,43.9,30.17,WSW,253,8.0,28.0,41,0.00,,,0.00,meteohub,2013-04-26 21:32:00,
2013-04-26 16:37:00,68.2,43.5,30.18,SSW,194,13.0,28.0,41,0.00,,,0.00,meteohub,2013-04-26 21:37:00,
2013-04-26 16:42:00,68.4,43.7,30.17,SSW,212,7.0,28.0,41,0.00,,,0.00,meteohub,2013-04-26 21:42:00,
2013-04-26 16:47:00,68.0,44.1,30.18,South,187,11.0,25.0,42,0.00,,,0.00,meteohub,2013-04-26 21:47:00,
2013-04-26 16:52:00,68.4,43.7,30.18,SW,233,8.0,25.0,41,0.00,,,0.00,meteohub,2013-04-26 21:52:00,
2013-04-26 16:57:00,68.2,43.5,30.18,WSW,258,5.0,25.0,41,0.00,,,0.00,meteohub,2013-04-26 21:57:00,
2013-04-26 17:02:00,68.4,43.7,30.17,SSW,210,5.0,17.0,41,0.00,,,0.00,meteohub,2013-04-26 22:02:00,
2013-04-26 17:07:00,68.7,43.3,30.17,WSW,254,14.0,16.0,40,0.00,,,0.00,meteohub,2013-04-26 22:07:00,
2013-04-26 17:12:00,68.7,42.8,30.17,West,264,8.0,23.0,39,0.00,,,0.00,meteohub,2013-04-26 22:12:00,
2013-04-26 17:17:00,68.7,44.1,30.18,SW,224,6.0,23.0,41,0.00,,,0.00,meteohub,2013-04-26 22:17:00,
2013-04-26 17:22:00,68.4,43.7,30.18,SW,224,2.0,23.0,41,0.00,,,0.00,meteohub,2013-04-26 22:22:00,
2013-04-26 17:27:00,68.4,43.7,30.18,South,191,13.0,17.0,41,0.00,,,0.00,meteohub,2013-04-26 22:27:00,
2013-04-26 17:32:00,67.8,42.6,30.18,SSE,164,7.0,17.0,40,0.00,,,0.00,meteohub,2013-04-26 22:32:00,
2013-04-26 17:37:00,67.5,43.0,30.18,SW,228,10.0,24.0,41,0.00,,,0.00,meteohub,2013-04-26 22:37:00,
2013-04-26 17:42:00,67.6,42.4,30.18,SW,218,6.0,28.0,40,0.00,,,0.00,meteohub,2013-04-26 22:42:00,
2013-04-26 17:47:00,67.3,42.8,30.18,South,170,10.0,28.0,41,0.00,,,0.00,meteohub,2013-04-26 22:47:00,
2013-04-26 17:52:00,67.3,42.8,30.18,SSW,202,3.0,22.0,41,0.00,,,0.00,meteohub,2013-04-26 22:52:00,
2013-04-26 17:57:00,67.3,42.8,30.18,WSW,240,13.0,22.0,41,0.00,,,0.00,meteohub,2013-04-26 22:57:00,
2013-04-26 18:02:00,66.9,42.4,30.18,SSE,165,12.0,22.0,41,0.00,,,0.00,meteohub,2013-04-26 23:02:00,
2013-04-26 18:07:00,66.6,42.1,30.18,South,191,9.0,22.0,41,0.00,,,0.00,meteohub,2013-04-26 23:07:00,
2013-04-26 18:12:00,66.4,42.6,30.18,South,173,9.0,22.0,42,0.00,,,0.00,meteohub,2013-04-26 23:12:00,
2013-04-26 18:17:00,66.0,42.3,30.18,SW,224,4.0,22.0,42,0.00,,,0.00,meteohub,2013-04-26 23:17:00,
2013-04-26 18:22:00,65.8,42.1,30.19,SSW,192,8.0,23.0,42,0.00,,,0.00,meteohub,2013-04-26 23:22:00,
2013-04-26 18:27:00,65.7,42.6,30.19,South,187,10.0,23.0,43,0.00,,,0.00,meteohub,2013-04-26 23:27:00,
2013-04-26 18:32:00,65.5,42.4,30.19,SSW,207,6.0,24.0,43,0.00,,,0.00,meteohub,2013-04-26 23:32:00,
2013-04-26 18:37:00,65.1,42.6,30.19,SSW,197,16.0,24.0,44,0.00,,,0.00,meteohub,2013-04-26 23:37:00,
2013-04-26 18:42:00,65.1,43.3,30.19,SW,218,10.0,21.0,45,0.00,,,0.00,meteohub,2013-04-26 23:42:00,
2013-04-26 18:47:00,64.9,43.2,30.19,SE,140,9.0,19.0,45,0.00,,,0.00,meteohub,2013-04-26 23:47:00,
2013-04-26 18:52:00,64.8,43.0,30.19,SSE,158,4.0,24.0,45,0.00,,,0.00,meteohub,2013-04-26 23:52:00,
2013-04-26 19:06:00,64.4,42.6,30.19,South,182,12.0,24.0,45,0.00,,,0.00,meteohub,2013-04-27 00:06:00,
2013-04-26 19:11:00,64.0,43.3,30.19,SSW,201,8.0,16.0,47,0.00,,,0.00,meteohub,2013-04-27 00:11:00,
2013-04-26 19:17:00,63.7,43.2,30.20,South,191,7.0,17.0,47,0.00,,,0.00,meteohub,2013-04-27 00:17:00,
2013-04-26 19:22:00,63.5,43.5,30.20,WSW,254,2.0,17.0,48,0.00,,,0.00,meteohub,2013-04-27 00:22:00,
2013-04-26 19:27:00,63.1,43.2,30.20,SSW,212,4.0,17.0,48,0.00,,,0.00,meteohub,2013-04-27 00:27:00,
2013-04-26 19:32:00,63.0,43.5,30.20,WSW,241,9.0,17.0,49,0.00,,,0.00,meteohub,2013-04-27 00:32:00,
2013-04-26 19:37:00,62.8,43.9,30.20,SW,231,8.0,16.0,50,0.00,,,0.00,meteohub,2013-04-27 00:37:00,
2013-04-26 19:42:00,62.4,44.1,30.20,WSW,241,5.0,15.0,51,0.00,,,0.00,meteohub,2013-04-27 00:42:00,
2013-04-26 19:47:00,62.2,43.9,30.20,South,182,6.0,15.0,51,0.00,,,0.00,meteohub,2013-04-27 00:47:00,
2013-04-26 19:52:00,62.1,44.2,30.21,SW,216,9.0,16.0,52,0.00,,,0.00,meteohub,2013-04-27 00:52:00,
2013-04-26 19:57:00,61.7,43.9,30.21,SE,146,4.0,19.0,52,0.00,,,0.00,meteohub,2013-04-27 00:57:00,
2013-04-26 20:02:00,61.5,44.2,30.21,SW,217,16.0,19.0,53,0.00,,,0.00,meteohub,2013-04-27 01:02:00,
2013-04-26 20:07:00,61.3,44.1,30.21,SW,218,5.0,19.0,53,0.00,,,0.00,meteohub,2013-04-27 01:07:00,
2013-04-26 20:12:00,61.3,44.1,30.21,South,177,1.0,19.0,53,0.00,,,0.00,meteohub,2013-04-27 01:12:00,
2013-04-26 20:17:00,61.3,44.6,30.22,WSW,256,9.0,19.0,54,0.00,,,0.00,meteohub,2013-04-27 01:17:00,
2013-04-26 20:22:00,61.2,44.4,30.22,SSE,166,12.0,16.0,54,0.00,,,0.00,meteohub,2013-04-27 01:22:00,
2013-04-26 20:27:00,61.0,44.2,30.22,SW,228,7.0,19.0,54,0.00,,,0.00,meteohub,2013-04-27 01:27:00,
2013-04-26 20:32:00,60.6,44.4,30.23,SW,214,6.0,19.0,55,0.00,,,0.00,meteohub,2013-04-27 01:32:00,
2013-04-26 20:37:00,60.4,44.6,30.23,SSW,198,8.0,19.0,56,0.00,,,0.00,meteohub,2013-04-27 01:37:00,
2013-04-26 20:42:00,60.3,44.4,30.23,SW,234,12.0,16.0,56,0.00,,,0.00,meteohub,2013-04-27 01:42:00,
2013-04-26 20:47:00,60.1,44.8,30.23,SSW,199,6.0,16.0,57,0.00,,,0.00,meteohub,2013-04-27 01:47:00,
2013-04-26 20:52:00,59.9,44.6,30.24,SSW,202,13.0,19.0,57,0.00,,,0.00,meteohub,2013-04-27 01:52:00,
2013-04-26 20:57:00,59.7,44.4,30.24,South,191,10.0,19.0,57,0.00,,,0.00,meteohub,2013-04-27 01:57:00,
2013-04-26 21:02:00,59.5,44.2,30.24,West,267,3.0,19.0,57,0.00,,,0.00,meteohub,2013-04-27 02:02:00,
2013-04-26 21:07:00,59.5,44.2,30.24,SSW,212,5.0,18.0,57,0.00,,,0.00,meteohub,2013-04-27 02:07:00,
2013-04-26 21:12:00,59.4,44.1,30.25,SW,214,7.0,18.0,57,0.00,,,0.00,meteohub,2013-04-27 02:12:00,
2013-04-26 21:17:00,59.4,44.1,30.25,SSE,166,7.0,18.0,57,0.00,,,0.00,meteohub,2013-04-27 02:17:00,
2013-04-26 21:22:00,59.4,44.1,30.25,SSW,201,10.0,17.0,57,0.00,,,0.00,meteohub,2013-04-27 02:22:00,
2013-04-26 21:27:00,59.2,44.4,30.25,SSW,197,14.0,17.0,58,0.00,,,0.00,meteohub,2013-04-27 02:27:00,
2013-04-26 21:32:00,59.2,44.4,30.25,SSW,208,8.0,17.0,58,0.00,,,0.00,meteohub,2013-04-27 02:32:00,
2013-04-26 21:37:00,59.0,44.2,30.25,SSW,201,8.0,17.0,58,0.00,,,0.00,meteohub,2013-04-27 02:37:00,
2013-04-26 21:42:00,58.8,44.6,30.25,SW,225,3.0,14.0,59,0.00,,,0.00,meteohub,2013-04-27 02:42:00,
2013-04-26 21:47:00,58.8,44.6,30.25,South,177,8.0,18.0,59,0.00,,,0.00,meteohub,2013-04-27 02:47:00,
2013-04-26 21:52:00,58.6,44.4,30.25,South,177,10.0,18.0,59,0.00,,,0.00,meteohub,2013-04-27 02:52:00,
2013-04-26 21:57:00,58.6,44.8,30.25,SSE,163,12.0,18.0,60,0.00,,,0.00,meteohub,2013-04-27 02:57:00,
2013-04-26 22:02:00,58.5,44.6,30.25,SSE,160,9.0,20.0,60,0.00,,,0.00,meteohub,2013-04-27 03:02:00,
2013-04-26 22:07:00,58.5,45.1,30.25,WSW,245,8.0,20.0,61,0.00,,,0.00,meteohub,2013-04-27 03:07:00,
2013-04-26 22:12:00,58.3,45.0,30.25,SSW,195,10.0,20.0,61,0.00,,,0.00,meteohub,2013-04-27 03:12:00,
2013-04-26 22:17:00,58.1,44.8,30.25,SSW,206,9.0,16.0,61,0.00,,,0.00,meteohub,2013-04-27 03:17:00,
2013-04-26 22:22:00,57.9,45.0,30.25,SSW,195,4.0,16.0,62,0.00,,,0.00,meteohub,2013-04-27 03:22:00,
2013-04-26 22:27:00,57.7,44.8,30.25,South,187,5.0,16.0,62,0.00,,,0.00,meteohub,2013-04-27 03:27:00,
2013-04-26 22:32:00,57.6,45.1,30.25,SSE,152,6.0,16.0,63,0.00,,,0.00,meteohub,2013-04-27 03:32:00,
2013-04-26 22:37:00,57.6,45.1,30.25,South,182,16.0,16.0,63,0.00,,,0.00,meteohub,2013-04-27 03:37:00,
2013-04-26 22:42:00,57.4,45.0,30.25,South,187,7.0,20.0,63,0.00,,,0.00,meteohub,2013-04-27 03:42:00,
2013-04-26 22:47:00,57.0,45.0,30.25,SSE,158,4.0,20.0,64,0.00,,,0.00,meteohub,2013-04-27 03:47:00,
2013-04-26 22:52:00,56.8,44.8,30.25,WSW,249,3.0,20.0,64,0.00,,,0.00,meteohub,2013-04-27 03:52:00,
2013-04-26 22:57:00,56.7,45.0,30.25,SW,226,8.0,16.0,65,0.00,,,0.00,meteohub,2013-04-27 03:57:00,
2013-04-26 23:01:00,56.7,45.0,30.25,SW,236,4.0,18.0,65,0.00,,,0.00,meteohub,2013-04-27 04:01:00,
2013-04-26 23:02:00,56.7,45.0,30.25,SSE,164,4.0,18.0,65,0.00,,,0.00,meteohub,2013-04-27 04:02:00,
2013-04-26 23:03:00,56.7,45.0,30.25,SSW,208,3.0,18.0,65,0.00,,,0.00,meteohub,2013-04-27 04:03:00,
2013-04-26 23:08:00,56.5,45.3,30.25,SW,217,5.0,18.0,66,0.00,,,0.00,meteohub,2013-04-27 04:08:00,
2013-04-26 23:13:00,56.3,45.1,30.25,SSW,204,8.0,18.0,66,0.00,,,0.00,meteohub,2013-04-27 04:13:00,
2013-04-26 23:19:00,56.1,45.3,30.25,SW,233,5.0,16.0,67,0.00,,,0.00,meteohub,2013-04-27 04:19:00,
2013-04-26 23:24:00,55.9,45.1,30.25,South,187,5.0,16.0,67,0.00,,,0.00,meteohub,2013-04-27 04:24:00,
2013-04-26 23:29:00,55.9,45.1,30.25,SSW,210,6.0,16.0,67,0.00,,,0.00,meteohub,2013-04-27 04:29:00,
2013-04-26 23:34:00,55.8,45.3,30.25,South,182,4.0,16.0,68,0.00,,,0.00,meteohub,2013-04-27 04:34:00,
2013-04-26 23:39:00,55.6,45.1,30.25,SSW,200,6.0,15.0,68,0.00,,,0.00,meteohub,2013-04-27 04:39:00,
2013-04-26 23:44:00,55.4,45.0,30.25,SSW,199,2.0,15.0,68,0.00,,,0.00,meteohub,2013-04-27 04:44:00,
2013-04-26 23:49:00,55.2,45.1,30.25,SSW,197,6.0,16.0,69,0.00,,,0.00,meteohub,2013-04-27 04:49:00,
2013-04-26 23:54:00,55.0,45.1,30.25,SSW,194,4.0,16.0,69,0.00,,,0.00,meteohub,2013-04-27 04:54:00,
2013-04-26 23:59:00,55.0,45.5,30.26,South,187,4.0,16.0,70,0.00,,,0.00,meteohub,2013-04-27 04:59:00,